Location: La Sioule Rivi�re
(46.3664°N, 3.3197°E)
Time: 13:02:07
(UTC+00:00)

CZ-4C R/B - Pass Details

Date: 29 October 2020
Orbit: 624 x 1378 km, 63.4° (Epoch: 23 November)

Event Time Altitude Azimuth Distance (km) Brightness Sun altitude
Rises 18:39:22 0° 320° (NW) 3,676 6.1 -21.8°
Reaches altitude 10° 18:42:02 10° 329° (NNW) 2,841 5.3 -22.2°
Maximum altitude 18:48:18 36° 35° (NE) 1,766 3.6 -23.3°
Enters shadow 18:49:37 34° 56° (NE) 1,866 3.5 -23.6°
